• Join FlightAware (Why Join?)
  • Login
  • US Flag 
12:39PM EDT


 

Airport Tracker/Info


-or-


 

Live Flight TrackerFlight Track Log ✈ EJA102 ✈ 12-Aug-2013 ✈ KAHN - KLUK

Flight Track Log - Related Links

Times and Time Zones

All times are in EDT time to prevent confusion due to time zone crossing. See the EJA102 flight status page for this flight to view local times or setup timezone preferences in your user account.

Time Position Orientation Groundspeed Altitude Reporting Facility
EDT Latitude Longitude Course Direction KTS MPH feet Rate Location/Type
09:48AM 33.9500 -83.3667 338° Northwest 165 190 2,400  Level Atlanta TRACON
09:49AM 34.0000 -83.3833 345° North 199 229 4,400 1,440 Climbing Atlanta TRACON
09:50AM 34.0500 -83.4000 345° North 223 257 5,200 1,140 Climbing Atlanta TRACON
09:51AM 34.1036 -83.4142 348° North 247 284 6,500 1,560 Climbing Atlanta Center
09:52AM 34.1811 -83.4361 347° North 271 312 8,100 1,680 Climbing Atlanta Center
09:53AM 34.2625 -83.4556 349° North 290 334 9,900 1,440 Climbing Atlanta Center
09:54AM 34.5441 -83.4970 338° Northwest  Level FlightAware Approximate
09:54AM 34.3461 -83.4778 348° North 296 341 11,000  Level Atlanta Center
09:55AM 34.4464 -83.5022 349° North 338 389 11,000  Level Atlanta Center
09:56AM 34.5467 -83.5294 347° North 357 411 11,000 660 Level Atlanta Center
09:57AM 34.6489 -83.5539 349° North 369 425 12,400 1,680 Climbing Atlanta Center
09:58AM 34.7514 -83.5836 347° North 374 430 14,400 1,920 Climbing Atlanta Center
09:59AM 34.8494 -83.6086 348° North 369 425 16,300 1,800 Climbing Atlanta Center
10:00AM 34.9456 -83.6383 346° North 363 418 18,000 1,740 Climbing Atlanta Center
10:01AM 35.0417 -83.6658 347° North 358 412 19,800 1,320 Climbing Atlanta Center
10:02AM 35.1397 -83.6908 348° North 358 412 20,700 900 Climbing Atlanta Center
10:03AM 35.2422 -83.7183 348° North 363 418 21,700 900 Climbing Atlanta Center
10:04AM 35.3486 -83.7486 347° North 374 430 22,600 900 Climbing Atlanta Center
10:05AM 35.4531 -83.7736 349° North 374 430 23,500 900 Climbing Atlanta Center
10:06AM 35.5575 -83.8039 347° North 374 430 24,500 900 Climbing Atlanta Center
10:07AM 35.6639 -83.8317 348° North 374 430 25,400 900 Climbing Atlanta Center
10:08AM 35.7703 -83.8569 349° North 374 430 26,300 900 Climbing Atlanta Center
10:09AM 35.8747 -83.8875 347° North 374 430 27,300 480 Climbing Atlanta Center
10:12AM 36.1697 -83.8478 North 420 483 28,000 180 Climbing Indianapolis Center
10:13AM 36.2897 -83.8281 North 432 497 28,000  Level Indianapolis Center
10:14AM 36.4111 -83.8064 North 439 505 28,000  Level Indianapolis Center
10:15AM 36.5444 -83.7844 North 452 520 28,000  Level Indianapolis Center
10:16AM 36.6689 -83.7622 North 449 517 28,000  Level Indianapolis Center
10:17AM 36.7931 -83.7414 North 448 516 28,000  Level Indianapolis Center
10:18AM 36.9189 -83.7186 North 451 519 28,000  Level Indianapolis Center
10:19AM 37.0436 -83.6961 North 450 518 28,000  Level Indianapolis Center
10:20AM 37.1914 -83.6692 North 456 525 28,000  Level Indianapolis Center
10:21AM 37.3181 -83.6461 North 458 527 28,000 -120 Level Indianapolis Center
10:22AM 37.4450 -83.6228 North 458 527 27,800 -1,320 Descending Indianapolis Center
10:23AM 37.5733 -83.6011 North 462 532 25,300 -1,860 Descending Indianapolis Center
10:24AM 37.6950 -83.6311 349° North 445 512 24,000 -1,260 Descending Indianapolis Center
10:25AM 37.7994 -83.7008 332° Northwest 426 490 22,800 -1,380 Descending Indianapolis Center
10:26AM 37.9028 -83.7733 331° Northwest 423 487 21,200 -1,800 Descending Indianapolis Center
10:27AM 38.0197 -83.8578 330° Northwest 415 478 19,100 -1,800 Descending Indianapolis Center
10:28AM 38.1169 -83.9281 330° Northwest 405 466 17,500 -1,620 Descending Indianapolis Center
10:29AM 38.2131 -83.9947 331° Northwest 394 453 15,800 -1,620 Descending Indianapolis Center
10:30AM 38.3039 -84.0617 330° Northwest 378 435 14,200 -1,560 Descending Indianapolis Center
10:31AM 38.3958 -84.1275 331° Northwest 379 436 12,600 -1,080 Descending Indianapolis Center
10:32AM 38.4900 -84.1664 342° North 362 417 12,000 -960 Descending Indianapolis Center
10:33AM 38.6133 -84.1681 359° North 376 433 10,700 -1,020 Descending Indianapolis Center
10:34AM 38.7081 -84.1719 358° North 349 402 9,900 -420 Descending Indianapolis Center
10:35AM 38.8019 -84.1919 351° North 344 396 9,900 -900 Level Indianapolis Center
10:36AM 38.8772 -84.2292 339° North 299 344 8,100 -1,980 Descending Indianapolis Center
10:37AM 38.9486 -84.2619 340° North 279 321 5,900 -1,560 Descending Indianapolis Center
10:38AM 39.0111 -84.3006 334° Northwest 260 299 4,900 -1,140 Descending Indianapolis Center
10:39AM 39.0614 -84.3317 334° Northwest 218 251 3,600 -1,260 Descending Indianapolis Center
10:41AM 39.1153 -84.3675 333° Northwest 206 237 2,400 -1,200 Descending Indianapolis Center
10:43AM 39.1033 -84.4186 253° West  Level Estimated
10:50AM 39.1033 -84.4186 345° North  Level Estimated